Starlink 36111

operational
NORAD ID: 66950 Int'l Des: 2025-286 Owner: SPXS Country: US Constellation: starlink
LEOCIRCULAR

About Starlink 36111

Description loading...

Live Position

Loading 3D Globe...

Upcoming Passes

Altitude History

Altitude vs Time

uPlot chart will show altitude changes over time

Two-Line Element Set

1 66950U 25286AB 25347.25002315 -.01315979 53720-3 -27591-2 0 9991
2 66950 53.1565 48.0823 0000889 82.1686 116.3072 15.98330251 2070
Epoch: Dec 13, 2025 • Age: 20 hours

Current Status

Altitude 299.8 km
Velocity 7.73 km/s
Sub-Earth Point -43.19°S, 159.92°E
Launch Date Dec 7, 2025
Age 6 days
Type internet

Technical Details

Classification Payload
Mass 575.00 kg
Dry Mass 530.00 kg
Total Mass 575.00 kg
Length 0.30 m
Diameter 4.10 m
Span 29.00 m
Shape Box + pan
Manufacturer SPXS
Bus Type Starlink V2MO
Phase Status In Orbit
Owner/State SPXS/US

Large Constellations

Loading constellations...